Location: ????
(33.1659°N, 35.6604°E)
Time: 16:17:07
(UTC+00:00)

Cosmos 2181 Rocket - Pass Details

Date: 20 September 2019
Orbit: 953 x 1014 km, 82.9° (Epoch: 13 October)

Event Time Altitude Azimuth Distance (km) Brightness Sun altitude
Rises 17:31:29 0° 190° (S) 3,636 6.9 -24.3°
Reaches altitude 10° 17:33:58 10° 193° (SSW) 2,700 6.2 -24.8°
Maximum altitude 17:40:08 71° 277° (W) 1,034 4.2 -26.0°
Drops below altitude 10° 17:46:26 10° 1° (N) 2,757 6.6 -27.2°
Sets 17:49:00 0° 4° (N) 3,718 7.3 -27.7°
